CW6225 Weather Reports


Display with metric or nautical units.
time (UTC)temp
F
wind
direction
speed
MPH
gust
MPH
rain 1hr
in
rain 24hr
in
rain mn
in
humidity
%
barometer
mb
20260504201558 62 0 0.0 3.0 0.00 0.00 0.00 72 1010.8
20260504200055 62 170 1.0 3.0 0.00 0.00 0.00 73 1010.9
20260504194556 60 171 1.0 5.0 0.00 0.00 0.00 76 1010.7
20260504193056 63 164 1.0 4.0 0.00 0.00 0.00 70 1010.7
20260504191601 63 180 0.0 2.0 0.00 0.00 0.00 70 1010.7
20260504190053 63 0 0.0 2.0 0.00 0.00 0.00 71 1010.7
20260504184559 62 272 0.0 3.0 0.00 0.00 0.00 72 1010.8
20260504183104 61 0 0.0 2.0 0.00 0.00 0.00 73 1010.8
20260504181554 59 0 0.0 3.0 0.00 0.00 0.00 74 1010.8
20260504180105 59 0 0.0 3.0 0.00 0.00 0.00 75 1011.0
20260504174549 59 178 1.0 3.0 0.00 0.00 0.00 74 1011.0
20260504173105 59 194 1.0 2.0 0.00 0.00 0.00 73 1010.9
20260504171559 60 194 0.0 4.0 0.00 0.00 0.00 72 1011.0
20260504081556 58 0 0.0 2.0 0.00 0.00 0.00 68 1009.5
20260504044554 59 0 0.0 0.0 0.00 0.00 0.00 68 1009.8
20260504043058 60 0 0.0 0.0 0.00 0.00 0.00 68 1009.7
20260504041549 60 0 0.0 0.0 0.00 0.00 0.00 68 1009.7
20260504040054 61 0 0.0 0.0 0.00 0.00 0.00 65 1009.7
20260504034606 62 0 0.0 0.0 0.00 0.00 0.00 63 1009.6
20260504033051 65 0 0.0 1.0 0.00 0.00 0.00 59 1009.6
20260504031552 68 0 0.0 2.0 0.00 0.00 0.00 54 1009.6
20260504030058 71 0 0.0 0.0 0.00 0.00 0.00 48 1009.6
20260504024555 72 0 0.0 1.0 0.00 0.00 0.00 48 1009.8
20260504023057 71 0 0.0 3.0 0.00 0.00 0.00 47 1009.8
20260504021556 70 0 0.0 3.0 0.00 0.00 0.00 50 1009.9
20260504020105 70 0 0.0 2.0 0.00 0.00 0.00 51 1010.1
20260504014558 70 0 0.0 2.0 0.00 0.00 0.00 51 1010.1
20260504013108 71 0 0.0 2.0 0.00 0.00 0.00 51 1010.2
20260504011549 71 0 0.0 2.0 0.00 0.00 0.00 53 1010.4
20260504010047 70 0 0.0 2.0 0.00 0.00 0.00 53 1010.4
20260504004551 69 0 0.0 2.0 0.00 0.00 0.00 56 1010.6
20260504003047 68 0 0.0 0.0 0.00 0.00 0.00 61 1010.7
20260504001550 66 188 0.0 3.0 0.00 0.00 0.00 64 1010.8
20260504000049 67 171 1.0 2.0 0.00 0.00 0.00 62 1011.0
20260503234549 66 0 0.0 3.0 0.00 0.00 0.00 65 1011.3
20260503233047 64 0 0.0 4.0 0.00 0.00 0.00 69 1011.3
20260503231552 62 165 2.0 6.0 0.00 0.00 0.00 72 1011.4
20260503230052 64 161 2.0 5.0 0.00 0.00 0.00 72 1011.7
20260503224600 64 127 4.0 9.0 0.00 0.00 0.00 67 1011.8
20260503223054 68 134 4.0 7.0 0.00 0.00 0.00 61 1012.1
20260503221601 71 168 1.0 4.0 0.00 0.00 0.00 54 1012.1
20260503220055 70 180 1.0 3.0 0.00 0.00 0.00 56 1012.3
20260503214554 71 192 1.0 3.0 0.00 0.00 0.00 54 1012.4
20260503213052 71 204 0.0 3.0 0.00 0.00 0.00 55 1012.5
20260503211552 69 202 0.0 6.0 0.00 0.00 0.00 60 1012.5
20260503210052 66 0 1.0 4.0 0.00 0.00 0.00 65 1012.8
20260503204616 64 169 1.0 3.0 0.00 0.00 0.00 68 1013.0
20260503203100 63 180 1.0 4.0 0.00 0.00 0.00 70 1013.1